Regional Weather Roundup
Issued by NWS

Home | Current Version | Previous Version | Text Only | Print | Product List | Glossary On
Versions: 1 2 3 4 5 6 7 8 9 10 11 12 13 14 15 16 17 18 19 20 21 22 23 24 25 26 27 28 29 30 31 32 33 34 35 36 37 38 39 40 41 42 43 44 45 46 47 48 49 50
000
ASUS44 KBMX 020810
RWRAL

ALABAMA REGIONAL WEATHER ROUNDUP
NATIONAL WEATHER SERVICE BIRMINGHAM AL
300 AM CDT THU OCT 02 2014

NOTE: "FAIR" INDICATES FEW OR NO CLOUDS BELOW 12,000 FEET
WITH NO SIGNIFICANT WEATHER AND/OR OBSTRUCTIONS TO VISIBILITY.

THE REMARK "TC" DENOTES TEMPERATURE IN DEGREES CELSIUS.

ALZ001>011-014-016>018-020-020900-
NORTH ALABAMA

CITY           SKY/WX    TMP DP  RH WIND       PRES   REMARKS
MUSCLE SHOALS  CLEAR     63  57  81 CALM      29.99S
HUNTSVILLE     CLEAR     67  59  75 E3        30.00S
DECATUR        CLEAR     60  57  89 CALM      30.00S
HALEYVILLE     FAIR      67  61  81 CALM      30.03R
GADSDEN        CLEAR     59  55  88 CALM      30.03R
$$

ALZ012-013-022-023-030>036-040>044-020900-
WEST CENTRAL ALABAMA

CITY           SKY/WX    TMP DP  RH WIND       PRES   REMARKS
TUSCALOOSA     CLEAR     65  62  90 CALM      29.99R
$$

ALZ015-024>027-033>036-040>044-020900-
CENTRAL ALABAMA

CITY           SKY/WX    TMP DP  RH WIND       PRES   REMARKS
BIRMINGHAM     CLEAR     67  61  81 CALM      30.02S
MONTGOMERY     CLEAR     65  62  90 CALM      30.01R
SHELBY CO ARPT CLEAR     65  62  90 CALM      30.01S
MAXWELL AFB    CLEAR     66  66 100 CALM      30.00S
GREENVILLE     FAIR      66  63  90 CALM      30.00S
$$

ALZ019-021-028-029-037-038-045>048-020900-
EAST CENTRAL ALABAMA

CITY           SKY/WX    TMP DP  RH WIND       PRES   REMARKS
ANNISTON       CLEAR     63  61  93 CALM      30.03S
ALEXANDER CITY CLEAR     64  62  95 CALM      30.02F
AUBURN         CLEAR     64  61  88 SE3       30.06S
$$

ALZ051>064-020900-
SOUTHWEST ALABAMA

CITY           SKY/WX    TMP DP  RH WIND       PRES   REMARKS
MOBILE         CLOUDY    73  73 100 SE5       29.98S
BROOKLEY FIELD CLEAR     76  75  97 SE7       29.98S
EVERGREEN      CLEAR     66  64  93 CALM      30.00R
$$

ALZ049-050-065>069-020900-
SOUTHEAST ALABAMA

CITY           SKY/WX    TMP DP  RH WIND       PRES   REMARKS
DOTHAN         CLEAR     67  66  97 SE5       30.04S
OZARK          CLEAR     68  66  93 E3        30.01S
TROY           CLEAR     63  61  93 CALM      30.02R
EUFAULA        FAIR      64  62  93 CALM      30.01S
$$


USA.gov is the U.S. government's official web portal to all federal, state and local government web resources and services.